Regional Weather Roundup
Issued by NWS

Home | Current Version | Previous Version | Text Only | Print | Product List | Glossary Off
Versions: 1 2 3 4 5 6 7 8 9 10 11 12 13 14 15 16 17 18 19 20 21 22 23 24 25 26 27 28 29 30 31 32 33 34 35 36 37 38 39 40 41 42 43 44 45 46 47 48 49 50

904
ASUS43 KOAX 241110
RWRNE

WEATHER ROUNDUP FOR NEBRASKA
NATIONAL WEATHER SERVICE OMAHA NE
600 AM CDT FRI MAR 24 2017

NOTES: SATELLITE DATA IS BEING USED TO AUGMENT CLOUD COVER ABOVE
       12000 FEET.
       "FAIR" INDICATES FEW OR NO CLOUDS BELOW 12,000 FEET WITH NO
       SIGNIFICANT WEATHER AND/OR OBSTRUCTIONS TO VISIBILITY.

  * THESE STATIONS DO NOT REPORT WEATHER SUCH AS RAIN...SNOW OR FOG.

NEZ001>004-019>022-054>056-241200-
NEBRASKA PANHANDLE

CITY           SKY/WX    TMP DP  RH WIND       PRES   REMARKS
SCOTTSBLUFF    CLOUDY    41  35  79 N13       29.99R
ALLIANCE       CLOUDY    40  37  89 N22       29.94R WCI  30
CHADRON        CLOUDY    38  35  89 N6        30.02R WCI  33
KIMBALL        DRIZZLE   39  39 100 N23G31    29.92R WCI  28
SIDNEY         CLOUDY    40  37  89 N28G36    29.88R WCI  29
$$

NEZ057>060-069>072-079>082-241200-
SOUTHWEST NEBRASKA

CITY           SKY/WX    TMP DP  RH WIND       PRES   REMARKS
NORTH PLATTE   CLOUDY    48  44  86 N21G31    29.79R
IMPERIAL       LGT RAIN  46  44  93 N23G33    29.76R FOG
LEXINGTON      CLOUDY    50  47  88 NE21G29   29.76R
MCCOOK         CLOUDY    50  49  96 NE24G37   29.71R
OGALLALA       LGT RAIN  45  43  94 N24       29.83R
$$

NEZ005>010-023>029-035>040-094-241200-
NORTH CENTRAL NEBRASKA

CITY           SKY/WX    TMP DP  RH WIND       PRES   REMARKS
VALENTINE      CLOUDY    42  36  79 N15       29.92R
AINSWORTH      CLOUDY    39  38  97 N13       29.90R WCI  32
BROKEN BOW     CLOUDY    47  44  90 N24G30    29.81R
O`NEILL        CLOUDY    41  40  97 N21       29.86S FOG
ORD            CLOUDY    44  39  82 N18       29.81R
THEDFORD       CLOUDY    41  40  93 N13G18    29.90R
$$

NEZ041-046>049-061>064-073>077-083>087-241200-
SOUTH CENTRAL NEBRASKA

CITY           SKY/WX    TMP DP  RH WIND       PRES   REMARKS
GRAND ISLAND   LGT RAIN  53  53 100 NE13      29.76R
AURORA         DRIZZLE   54  53  97 NE8       29.75R
HASTINGS       CLOUDY    54  52  93 NE14      29.74R
HEBRON         CLOUDY    58  55  89 E9        29.70F
HOLDREGE       CLOUDY    53  51  93 NE22G28   29.72R
KEARNEY *      CLOUDY    54  50  87 NE18      29.75R
YORK           CLOUDY    55  54  94 NE13      29.74R
$$

NEZ011>018-030>034-042>045-241200-
NORTHEAST NEBRASKA

CITY           SKY/WX    TMP DP  RH WIND       PRES   REMARKS
NORFOLK        CLOUDY    46  43  89 N18G24    29.76F
ALBION         CLOUDY    48  44  87 N16G22    29.79R
BLAIR          LGT RAIN  53  52  96 N9        29.74S
FREMONT        LGT RAIN  54  54  98 CALM      29.75F
TEKAMAH        CLOUDY    50  49  96 N13       29.77R
WAYNE          CLOUDY    46  46  99 N9        29.82S
$$

NEZ050>053-065>068-078-088>093-241200-
SOUTHEAST NEBRASKA

CITY           SKY/WX    TMP DP  RH WIND       PRES   REMARKS
LINCOLN        LGT RAIN  55  54  96 NE16      29.73F FOG
OMAHA EPPLEY   CLOUDY    54  50  86 N6        29.73F
BEATRICE       RAIN      60  55  83 CALM      29.75R
FALLS CITY     CLOUDY    66  49  54 S9        29.72R
NEBRASKA CITY  CLOUDY    63  43  49 CALM      29.75R
PLATTSMOUTH    CLOUDY    59  52  76 N7        29.74S
$$

NEZ044-045-051>053-067-241200-
OMAHA AREA

CITY           SKY/WX    TMP DP  RH WIND       PRES   REMARKS
OMAHA EPPLEY   CLOUDY    54  50  86 N6        29.73F
BLAIR          LGT RAIN  53  52  96 N9        29.74S
FREMONT        LGT RAIN  54  54  98 CALM      29.75F
MILLARD        DRIZZLE   58  56  94 NW6       29.74S
OFFUTT AFB     CLOUDY    57  53  89 CALM      29.74S
PLATTSMOUTH    CLOUDY    59  52  76 N7        29.74S
WAHOO          RAIN      55  53  94 N5        29.76R
$$




USA.gov is the U.S. government's official web portal to all federal, state and local government web resources and services.